Regional Weather Roundup
Issued by NWS New Orleans/Baton Rouge, LA

Home | Current Version | Previous Version | Text Only | Print | Product List | Glossary Off
Versions: 1 2 3 4 5 6 7 8 9 10 11 12 13 14 15 16 17 18 19 20 21 22 23 24 25 26 27 28 29 30 31 32 33 34 35 36 37 38 39 40 41 42 43 44 45 46 47 48 49 50

965
ASUS44 KLIX 190307
RWRLIX
NEW ORLEANS REGIONAL WEATHER ROUNDUP
NATIONAL WEATHER SERVICE NEW ORLEANS LA
1000 PM CDT SAT APR 18 2015

NOTE: "FAIR" INDICATES FEW OR NO CLOUDS BELOW 12,000 FEET WITH NO
      SIGNIFICANT WEATHER AND/OR OBSTRUCTIONS TO VISIBILITY.
      SKY/WX - SKY CONDITION AND SIGNIFICANT WEATHER.
      TMP - AIR TEMPERATURE.     DP    - DEWPOINT TEMPERATURE.
      RH  - RELATIVE HUMIDITY.   PRES  - PRESSURE.
      HI  - HEAT INDEX.          WCI   - WIND CHILL INDEX.

*  THESE STATIONS ARE NOT NWS OR FAA STATIONS AND ARE NOT UNDER
   NWS QUALITY CONTROL.

LAZ038-040-048-061>063-065>067-069-190400-
SOUTHEAST LOUISIANA

CITY           SKY/WX    TMP DP  RH WIND       PRES   REMARKS
N.O. AUDUBON     N/A     72  72 100 MISG        N/A
N.O. INTL ARPT CLOUDY    71  67  87 SE13      29.80F
N.O. LAKEFRONT CLOUDY    73  68  84 S15G23    29.83F
SLIDELL        CLOUDY    72  72 100 S12G18    29.83F
BATON ROUGE    LGT RAIN  72  69  90 S3        29.81F
BOOTHVILLE     CLOUDY    71  68  90 SE8       29.90S
BELLE CHASSE   LGT RAIN  71  67  87 SE14      29.81F FOG
BOGALUSA*        N/A     73  69  86 S9        29.83F
GALLIANO*      CLOUDY    68  67  97 SE5       29.83F
NEW ROADS*     CLOUDY    72  69  91 SE7       29.79F
GONZALES*      CLOUDY    72  72 100 S9G16     29.80S
HAMMOND*       CLOUDY    73  70  88 S13       29.82S
HOUMA*         CLOUDY    72  70  96 SE14      29.80F
PORT FOURCHON* CLOUDY    73  68  83 SE13G22   29.86F

$$

MSZ070-080>082-190400-
SOUTHERN MISSISSIPPI

CITY           SKY/WX    TMP DP  RH WIND       PRES   REMARKS
MCCOMB         CLOUDY    71  69  93 S9        29.81F
GULFPORT       LGT RAIN  71  68  90 S7        29.87F
BILOXI         LGT RAIN  72  72 100 SW14      29.87F
PASCAGOULA     CLOUDY    71  69  93 S3        29.90R

$$

COASTAL OBSERVATIONS
LAKE AND NEARSHORE STATIONS

STATION/POSITION TIME  TEMP    WIND        PRES    WAVE
                       AIR SEA DIR/SP/G            HT/PER
                 (UTC) (F)     (DEG/KT/KT) (MB)    (FT/S)
PASCAGOULA       0200   74     190/ 14/ 19 1011.5
WAVELAND YACHT   0200   72 73  200/ 10/ 20 1012.2
GRAND ISLE       0200   72 75  150/  9/ 15 1011.8
SOUTHWEST PASS   0200   70 63  120/ 10/ 12 1012.5
NEW CANAL        0200   72     170/  6/ 10 1011.1
SHELL BEACH      0200   71 75  170/ 12/ 16 1011.4

OFFSHORE STATIONS

STATION/POSITION TIME  TEMP    WIND        PRES    WAVE
                       AIR SEA DIR/SP/G            HT/PER
                 (UTC) (F)     (DEG/KT/KT) (MB)    (FT/S)
64 S DAUPHIN ISL 0250   72 74  150/ 17/ 21 1012.7    2/ 6

$$




USA.gov is the U.S. government's official web portal to all federal, state and local government web resources and services.